When you browse on this site, cookies collect data to enhance your experience and personalize the content and advertising you see.
Visit our Privacy Policy to learn more. By continuing to use the site, you agree to this use of cookies and data.
  • In Lithuania
  • List of Countries
  • For 7 days
  • Water Temperature
  • Weather Map
  • Weather Widgets
  • user-avatar
    Login

    Hourly Weather Kerns

    Today, 15 October, Tuesday

    Time Temperature Precipitation Wind Pressure Humidity
    00:00 +21°C° 0 mm 1 mps 761 mmHg 90%
    01:00 +20°C° 0 mm 1 mps 760 mmHg 91%
    02:00 +20°C° 0 mm 1 mps 760 mmHg 91%
    03:00 +20°C° 0 mm 1 mps 760 mmHg 92%
    04:00 +20°C° 0 mm 1 mps 760 mmHg 93%
    05:00 +21°C° 0 mm 1 mps 761 mmHg 88%
    06:00 +22°C° 0 mm 1 mps 761 mmHg 83%
    07:00 +23°C° 0 mm 1 mps 761 mmHg 78%
    08:00 +27°C° 0 mm 1 mps 761 mmHg 62%
    09:00 +30°C° 0 mm 1 mps 761 mmHg 46%
    10:00 +35°C° 0 mm 2 mps 761 mmHg 32%
    11:00 +35°C° 0 mm 2 mps 760 mmHg 30%
    12:00 +36°C° 0 mm 2 mps 760 mmHg 29%
    13:00 +37°C° 0 mm 2 mps 759 mmHg 28%
    14:00 +36°C° 0 mm 2 mps 758 mmHg 31%
    15:00 +35°C° 0 mm 2 mps 758 mmHg 34%
    16:00 +34°C° 0 mm 2 mps 757 mmHg 39%
    17:00 +30°C° 0 mm 2 mps 758 mmHg 52%
    18:00 +27°C° 0 mm 1 mps 758 mmHg 65%
    19:00 +24°C° 0 mm 1 mps 759 mmHg 78%
    20:00 +23°C° 0 mm 1 mps 759 mmHg 80%
    21:00 +22°C° 0 mm 1 mps 759 mmHg 82%
    22:00 +22°C° 0 mm 1 mps 760 mmHg 84%
    23:00 +21°C° 0 mm 1 mps 759 mmHg 80%

    Tomorrow, 16 October, Wednesday

    Time Temperature Precipitation Wind Pressure Humidity
    00:00 +21°C° 0 mm 1 mps 759 mmHg 76%
    01:00 +21°C° 0 mm 1 mps 759 mmHg 72%
    02:00 +21°C° 0 mm 1 mps 759 mmHg 72%
    03:00 +21°C° 0 mm 1 mps 759 mmHg 71%
    04:00 +21°C° 0 mm 1 mps 759 mmHg 71%
    05:00 +22°C° 0 mm 1 mps 759 mmHg 66%
    06:00 +23°C° 0 mm 1 mps 760 mmHg 61%
    07:00 +24°C° 0 mm 1 mps 760 mmHg 56%
    08:00 +28°C° 0 mm 2 mps 760 mmHg 46%
    09:00 +32°C° 0 mm 2 mps 760 mmHg 35%
    10:00 +37°C° 0 mm 2 mps 760 mmHg 25%
    11:00 +37°C° 0 mm 3 mps 760 mmHg 25%
    12:00 +38°C° 0 mm 3 mps 759 mmHg 25%
    13:00 +38°C° 0 mm 3 mps 758 mmHg 25%
    14:00 +37°C° 0 mm 3 mps 758 mmHg 29%
    15:00 +35°C° 0 mm 3 mps 758 mmHg 34%
    16:00 +34°C° 0 mm 3 mps 758 mmHg 38%
    17:00 +30°C° 0 mm 2 mps 758 mmHg 53%
    18:00 +27°C° 0 mm 2 mps 758 mmHg 68%
    19:00 +24°C° 0 mm 2 mps 759 mmHg 83%
    20:00 +23°C° 0 mm 1 mps 759 mmHg 87%
    21:00 +23°C° 0 mm 1 mps 760 mmHg 91%
    22:00 +22°C° 0 mm 1 mps 760 mmHg 96%
    23:00 +22°C° 0 mm 1 mps 760 mmHg 95%

    Day after tomorrow, 17 October, Thursday

    Time Temperature Precipitation Wind Pressure Humidity
    00:00 +22°C° 0 mm 1 mps 760 mmHg 95%
    01:00 +22°C° 0 mm 1 mps 759 mmHg 95%
    02:00 +22°C° 0 mm 1 mps 759 mmHg 95%
    03:00 +22°C° 0 mm 1 mps 759 mmHg 95%
    04:00 +22°C° 0 mm 1 mps 759 mmHg 95%
    05:00 +23°C° 0 mm 1 mps 760 mmHg 90%
    06:00 +24°C° 0 mm 1 mps 760 mmHg 86%
    07:00 +25°C° 0 mm 1 mps 761 mmHg 82%
    08:00 +28°C° 0 mm 1 mps 761 mmHg 68%
    09:00 +31°C° 0 mm 2 mps 761 mmHg 54%
    10:00 +35°C° 0 mm 2 mps 761 mmHg 40%
    11:00 +35°C° 0 mm 2 mps 760 mmHg 38%
    12:00 +36°C° 0 mm 3 mps 760 mmHg 36%
    13:00 +36°C° 0 mm 3 mps 759 mmHg 34%
    14:00 +35°C° 0 mm 3 mps 759 mmHg 37%
    15:00 +35°C° 0 mm 2 mps 759 mmHg 40%
    16:00 +34°C° 0 mm 2 mps 758 mmHg 43%
    17:00 +30°C° 0 mm 2 mps 759 mmHg 56%
    18:00 +27°C° 0 mm 1 mps 759 mmHg 69%
    19:00 +25°C° 0 mm 1 mps 760 mmHg 82%
    20:00 +24°C° 0 mm 1 mps 760 mmHg 86%
    21:00 +23°C° 0 mm 1 mps 761 mmHg 90%
    22:00 +23°C° 0 mm 1 mps 761 mmHg 93%
    23:00 +22°C° 0 mm 1 mps 761 mmHg 94%

    18 October, Friday

    Time Temperature Precipitation Wind Pressure Humidity
    00:00 +22°C° 0 mm 1 mps 760 mmHg 94%
    01:00 +20°C° 0 mm 0 mps 760 mmHg 95%
    02:00 +20°C° 0 mm 0 mps 760 mmHg 95%
    03:00 +20°C° 0 mm 0 mps 760 mmHg 95%
    04:00 +20°C° 0 mm 0 mps 760 mmHg 96%
    05:00 +23°C° 0 mm 1 mps 760 mmHg 92%
    06:00 +24°C° 0 mm 1 mps 761 mmHg 88%
    07:00 +25°C° 0 mm 1 mps 761 mmHg 84%
    08:00 +27°C° 0 mm 2 mps 762 mmHg 72%
    09:00 +30°C° 0 mm 2 mps 762 mmHg 60%
    10:00 +33°C° 0 mm 3 mps 762 mmHg 48%
    11:00 +34°C° 0 mm 3 mps 762 mmHg 47%
    12:00 +35°C° 0 mm 3 mps 761 mmHg 45%
    13:00 +35°C° 0 mm 3 mps 760 mmHg 44%
    14:00 +34°C° 0 mm 3 mps 760 mmHg 46%
    15:00 +34°C° 0 mm 3 mps 759 mmHg 47%
    16:00 +32°C° 0 mm 2 mps 759 mmHg 49%
    17:00 +29°C° 0 mm 2 mps 759 mmHg 61%
    18:00 +27°C° 0 mm 2 mps 760 mmHg 74%
    19:00 +24°C° 0 mm 1 mps 760 mmHg 86%
    20:00 +23°C° 0 mm 1 mps 761 mmHg 89%
    21:00 +23°C° 0 mm 1 mps 761 mmHg 92%
    22:00 +22°C° 0 mm 1 mps 762 mmHg 96%
    23:00 +22°C° 0 mm 1 mps 761 mmHg 96%

    19 October, Saturday

    Time Temperature Precipitation Wind Pressure Humidity
    00:00 +22°C° 0 mm 1 mps 761 mmHg 97%
    01:00 +22°C° 0 mm 1 mps 760 mmHg 97%
    02:00 +21°C° 0 mm 1 mps 760 mmHg 97%
    03:00 +21°C° 0 mm 1 mps 760 mmHg 96%
    04:00 +21°C° 0 mm 1 mps 760 mmHg 96%
    05:00 +22°C° 0 mm 1 mps 761 mmHg 91%
    06:00 +23°C° 0 mm 1 mps 761 mmHg 85%
    07:00 +24°C° 0 mm 1 mps 762 mmHg 79%
    08:00 +27°C° 0 mm 2 mps 762 mmHg 66%
    09:00 +30°C° 0 mm 2 mps 762 mmHg 52%
    10:00 +34°C° 0 mm 3 mps 762 mmHg 39%
    11:00 +35°C° 0 mm 3 mps 762 mmHg 38%
    12:00 +36°C° 0 mm 3 mps 761 mmHg 37%
    13:00 +36°C° 0 mm 4 mps 760 mmHg 37%
    14:00 +35°C° 0 mm 4 mps 760 mmHg 41%
    15:00 +34°C° 0 mm 3 mps 760 mmHg 46%
    16:00 +33°C° 0 mm 3 mps 759 mmHg 51%
    17:00 +30°C° 0 mm 3 mps 759 mmHg 62%
    18:00 +27°C° 0 mm 2 mps 760 mmHg 74%
    19:00 +24°C° 0 mm 1 mps 760 mmHg 86%
    20:00 +24°C° 0 mm 1 mps 760 mmHg 89%
    21:00 +23°C° 0 mm 1 mps 761 mmHg 92%
    22:00 +22°C° 0 mm 1 mps 761 mmHg 95%
    23:00 +22°C° 0 mm 1 mps 761 mmHg 96%

    20 October, Sunday

    Time Temperature Precipitation Wind Pressure Humidity
    00:00 +22°C° 0 mm 1 mps 761 mmHg 96%
    01:00 +21°C° 0 mm 1 mps 761 mmHg 96%
    02:00 +21°C° 0 mm 1 mps 760 mmHg 96%
    03:00 +21°C° 0 mm 1 mps 760 mmHg 95%
    04:00 +21°C° 0 mm 1 mps 760 mmHg 95%
    05:00 +21°C° 0 mm 2 mps 761 mmHg 88%
    06:00 +23°C° 0 mm 2 mps 761 mmHg 82%
    07:00 +24°C° 0 mm 2 mps 762 mmHg 75%
    08:00 +28°C° 0 mm 2 mps 762 mmHg 62%
    09:00 +31°C° 0 mm 2 mps 761 mmHg 49%
    10:00 +35°C° 0 mm 3 mps 761 mmHg 36%
    11:00 +35°C° 0 mm 3 mps 761 mmHg 37%
    12:00 +36°C° 0 mm 3 mps 760 mmHg 38%
    13:00 +36°C° 0 mm 4 mps 760 mmHg 39%
    14:00 +34°C° 0 mm 4 mps 759 mmHg 44%
    15:00 +33°C° 0 mm 4 mps 759 mmHg 49%
    16:00 +32°C° 0 mm 4 mps 759 mmHg 54%
    17:00 +29°C° 0 mm 3 mps 759 mmHg 66%
    18:00 +26°C° 0 mm 3 mps 760 mmHg 77%
    19:00 +24°C° 0 mm 3 mps 760 mmHg 88%
    20:00 +24°C° 0 mm 3 mps 760 mmHg 87%
    21:00 +24°C° 0 mm 3 mps 761 mmHg 87%
    22:00 +24°C° 0 mm 3 mps 761 mmHg 86%
    23:00 +24°C° 0 mm 3 mps 761 mmHg 87%
    Show more